Lynchburg, VA

5:21 PM EDT on August 27, 2016 (GMT -0400)
Lynchburg Regional-Glenn

Weather History for KLYH - January, 2013

Change the Weather History Date:

Wednesday, January 23, 2013

  Actual Average Record
Temperature  
Mean Temperature 23 °F 35 °F  
Max Temperature 34 °F 46 °F 74 °F (1967)
Min Temperature 12 °F 25 °F -1 °F (1936)
Degree Days  
Heating Degree Days 42 30  
Month to date heating degree days 566 690  
Since 1 July heating degree days 2204 2435  
Cooling Degree Days 0 0  
Month to date cooling degree days 0 0  
Year to date cooling degree days 0 0  
Moisture  
Dew Point 4 °F    
Average Humidity 43    
Maximum Humidity 63    
Minimum Humidity 23    
Precipitation  
Precipitation 0.00 in 0.10 in 1.55 in (1935)
Month to date precipitation 4.93 2.33  
Year to date precipitation 4.93 2.33  
Snow  
Snow 0.00 in - - ()
Month to date snowfall 2.0  
Since 1 July snowfall 2.0  
Snow Depth 0.00 in    
Sea Level Pressure  
Sea Level Pressure 30.24 in    
Wind  
Wind Speed 4 mph (WSW)    
Max Wind Speed 15 mph    
Max Gust Speed 22 mph    
Visibility 10 miles    
Events      
T = Trace of Precipitation, MM = Missing Value Source: NWS Daily Summary

Daily Weather History Graph

Daily Weather History Graph

Search for Another Location

Airport or City:

Trip Planner

Search our weather history database for the weather conditions in past years. The results will help you decide how hot, cold, wet, or windy it might be!

Date:

Astronomy

Jan. 23, 2013 Rise Set
Actual Time 7:26 AM EST 5:31 PM EST
Civil Twilight 6:58 AM EST 5:59 PM EST
Nautical Twilight 6:26 AM EST 6:31 PM EST
Astronomical Twilight 5:55 AM EST 7:02 PM EST
Moon 2:41 PM EST (1/23) 4:35 AM EST (1/23)
Length of Visible Light 11h 01m
Length of Day
10h 05m
Waxing Gibbous, 89% of the Moon is Illuminated
Jan 23
Waxing Gibbous
Jan 26
Full
Feb 3
Last Quarter
Feb 10
New
Feb 17
First Quarter

Hourly Weather History & Observations

Time (EST) Temp. Windchill Dew Point Humidity Pressure Visibility Wind Dir Wind Speed Gust Speed Precip Events Conditions
12:54 AM 17.1 °F - -2.0 °F 43% 30.30 in 10.0 mi Calm Calm - N/A   Clear
1:54 AM 18.0 °F 12.7 °F -0.0 °F 45% 30.30 in 10.0 mi SW 3.5 mph - N/A   Overcast
2:54 AM 16.0 °F 10.4 °F -0.0 °F 49% 30.31 in 10.0 mi SSW 3.5 mph - N/A   Partly Cloudy
3:54 AM 14.0 °F - 1.0 °F 56% 30.32 in 10.0 mi Calm Calm - N/A   Clear
4:54 AM 18.0 °F 12.7 °F -2.0 °F 41% 30.31 in 10.0 mi Variable 3.5 mph - N/A   Clear
5:54 AM 14.0 °F 8.2 °F -0.0 °F 54% 30.32 in 10.0 mi Variable 3.5 mph - N/A   Clear
6:54 AM 14.0 °F 8.2 °F -0.9 °F 52% 30.34 in 10.0 mi SSW 3.5 mph - N/A   Clear
7:54 AM 16.0 °F - 1.0 °F 52% 30.35 in 10.0 mi Calm Calm - N/A   Clear
8:54 AM 19.9 °F 12.1 °F 3.0 °F 48% 30.35 in 10.0 mi SSW 5.8 mph - N/A   Clear
9:54 AM 23.0 °F 12.4 °F -0.9 °F 35% 30.35 in 10.0 mi WSW 10.4 mph 16.1 mph N/A   Clear
10:54 AM 25.0 °F 18.1 °F -0.0 °F 34% 30.35 in 10.0 mi Variable 5.8 mph 16.1 mph N/A   Clear
11:54 AM 27.0 °F 16.7 °F -0.0 °F 31% 30.31 in 10.0 mi SW 11.5 mph - N/A   Clear
12:54 PM 28.9 °F 21.9 °F -2.0 °F 26% 30.26 in 10.0 mi Variable 6.9 mph - N/A   Mostly Cloudy
1:54 PM 32.0 °F 27.5 °F -2.9 °F 22% 30.22 in 10.0 mi Variable 4.6 mph - N/A   Mostly Cloudy
2:54 PM 33.1 °F 23.4 °F -0.9 °F 23% 30.20 in 10.0 mi West 13.8 mph 21.9 mph N/A   Overcast
3:54 PM 30.9 °F 26.2 °F 1.9 °F 29% 30.19 in 10.0 mi West 4.6 mph - N/A   Partly Cloudy
4:54 PM 32.0 °F 24.2 °F 6.8 °F 35% 30.16 in 10.0 mi WSW 9.2 mph - N/A   Overcast
5:54 PM 32.0 °F 28.7 °F 9.0 °F 38% 30.18 in 10.0 mi West 3.5 mph - N/A   Overcast
6:54 PM 30.9 °F 26.2 °F 10.9 °F 43% 30.15 in 10.0 mi WNW 4.6 mph - N/A   Overcast
7:54 PM 30.9 °F - 12.0 °F 46% 30.14 in 10.0 mi Calm Calm - N/A   Overcast
8:54 PM 30.0 °F - 15.1 °F 54% 30.12 in 10.0 mi Calm Calm - N/A   Overcast
9:54 PM 30.0 °F - 16.0 °F 56% 30.10 in 10.0 mi Calm Calm - N/A   Overcast
10:54 PM 28.9 °F - 18.0 °F 64% 30.09 in 10.0 mi Calm Calm - N/A   Overcast
11:54 PM 30.0 °F - 18.0 °F 61% 30.06 in 10.0 mi Calm Calm - N/A   Overcast